Location: Grange Rosano
(44.4500°N, 6.9667°E)
Time: 21:21:32
(UTC+00:00)

SL-8 Rocket - Pass Details

Date: 26 May 2022
Orbit: 958 x 990 km, 82.9° (Epoch: 01 July)

Event Time Altitude Azimuth Distance (km) Brightness Sun altitude
Rises 02:45:06 0° 350° (N) 3,712 7.6 -10.7°
Reaches altitude 10° 02:47:38 10° 350° (N) 2,760 6.8 -10.3°
Maximum altitude 02:53:58 80° 265° (W) 1,011 4.0 -9.5°
Drops below altitude 10° 03:00:15 10° 179° (S) 2,739 6.0 -8.7°
Sets 03:02:45 0° 178° (S) 3,680 6.6 -8.3°
